Bellefontaine, OH

3:25 AM EDT on July 21, 2017 (GMT -0400)
Bellefontaine

Weather History for KEDJ - September, 2013

Change the Weather History Date:

Sunday, September 29, 2013

  Actual Average (KDLZ) Record (KDLZ)
Temperature  
Mean Temperature 60 °F -  
Max Temperature 66 °F 71 °F 97 °F (1953)
Min Temperature 55 °F 44 °F 28 °F (1942)
Degree Days  
Heating Degree Days 4    
Growing Degree Days 10 (Base 50)    
Moisture  
Dew Point 57 °F    
Average Humidity 88    
Maximum Humidity 100    
Minimum Humidity 68    
Precipitation  
Precipitation 0.04 in - - ()
Sea Level Pressure  
Sea Level Pressure 30.02 in    
Wind  
Wind Speed 7 mph (South)    
Max Wind Speed 10 mph    
Max Gust Speed -    
Visibility 9 miles    
Events      
Averages and records for this station are not official NWS values.
T = Trace of Precipitation, MM = Missing Value Source: NWS Daily Summary

Daily Weather History Graph

Daily Weather History Graph

Search for Another Location

Airport or City:

Trip Planner

Search our weather history database for the weather conditions in past years. The results will help you decide how hot, cold, wet, or windy it might be!

Date:

Astronomy

Sep. 29, 2013 Rise Set
Actual Time 7:29 AM EDT 7:20 PM EDT
Civil Twilight 7:02 AM EDT 7:47 PM EDT
Nautical Twilight 6:31 AM EDT 8:19 PM EDT
Astronomical Twilight 5:59 AM EDT 8:50 PM EDT
Moon 2:09 AM EDT (9/29) 4:16 PM EDT (9/29)
Length of Visible Light 12h 44m
Length of Day
11h 50m
Waning Crescent, 27% of the Moon is Illuminated
Sep 29
Waning Crescent
Oct 4
New
Oct 11
First Quarter
Oct 18
Full
Oct 26
Last Quarter

Hourly Weather History & Observations

Time (EDT) Temp. Dew Point Humidity Pressure Visibility Wind Dir Wind Speed Gust Speed Precip Events Conditions
12:10 AM 60.8 °F 51.8 °F 72% 30.06 in 10.0 mi SSE 8.1 mph - 0.00 in   Clear
12:30 AM 59.0 °F 51.8 °F 77% 30.06 in 10.0 mi SSE 6.9 mph - 0.00 in   Clear
12:50 AM 59.0 °F 51.8 °F 77% 30.06 in 10.0 mi SE 8.1 mph - 0.00 in   Clear
1:10 AM 59.0 °F 51.8 °F 77% 30.06 in 10.0 mi SE 6.9 mph - 0.00 in   Clear
1:30 AM 59.0 °F 51.8 °F 77% 30.06 in 10.0 mi SE 6.9 mph - 0.00 in   Partly Cloudy
1:50 AM 60.8 °F 51.8 °F 72% 30.06 in 10.0 mi SSE 6.9 mph - 0.00 in   Mostly Cloudy
2:10 AM 60.8 °F 53.6 °F 77% 30.06 in 10.0 mi SSE 8.1 mph - 0.00 in   Mostly Cloudy
2:30 AM 60.8 °F 53.6 °F 77% 30.06 in 10.0 mi SSE 6.9 mph - 0.00 in   Mostly Cloudy
2:50 AM 60.8 °F 51.8 °F 72% 30.05 in 10.0 mi SSE 6.9 mph - 0.00 in   Scattered Clouds
3:10 AM 60.8 °F 51.8 °F 72% 30.05 in 10.0 mi SSE 8.1 mph - 0.00 in   Mostly Cloudy
3:30 AM 60.8 °F 51.8 °F 72% 30.05 in 10.0 mi SSE 6.9 mph - 0.00 in   Scattered Clouds
3:50 AM 59.0 °F 53.6 °F 82% 30.04 in 10.0 mi SSE 6.9 mph - 0.00 in   Scattered Clouds
4:10 AM 60.8 °F 53.6 °F 77% 30.03 in 10.0 mi SSE 8.1 mph - 0.00 in   Mostly Cloudy
4:30 AM 59.0 °F 53.6 °F 82% 30.04 in 10.0 mi South 5.8 mph - 0.00 in   Mostly Cloudy
4:50 AM 59.0 °F 53.6 °F 82% 30.04 in 10.0 mi SSE 6.9 mph - 0.00 in   Mostly Cloudy
5:10 AM 59.0 °F 53.6 °F 82% 30.04 in 10.0 mi SSE 6.9 mph - 0.00 in   Mostly Cloudy
5:30 AM 57.2 °F 53.6 °F 88% 30.03 in 10.0 mi SSE 5.8 mph - 0.00 in   Partly Cloudy
5:50 AM 57.2 °F 53.6 °F 88% 30.03 in 10.0 mi SSE 5.8 mph - 0.00 in   Clear
6:10 AM 55.4 °F 53.6 °F 94% 30.03 in 10.0 mi SSE 6.9 mph - 0.00 in   Clear
6:30 AM 55.4 °F 53.6 °F 94% 30.03 in 10.0 mi SSE 5.8 mph - 0.00 in   Clear
6:50 AM 55.4 °F 53.6 °F 94% 30.04 in 10.0 mi SSE 6.9 mph - 0.00 in   Clear
7:10 AM 55.4 °F 53.6 °F 94% 30.04 in 10.0 mi SSE 8.1 mph - 0.00 in   Clear
7:30 AM 55.4 °F 53.6 °F 94% 30.04 in 10.0 mi SSE 5.8 mph - 0.00 in   Clear
7:50 AM 55.4 °F 55.4 °F 100% 30.04 in 10.0 mi SSE 6.9 mph - 0.00 in   Clear
8:10 AM 57.2 °F 55.4 °F 94% 30.04 in 10.0 mi SSE 6.9 mph - 0.00 in   Clear
8:30 AM 59.0 °F 55.4 °F 88% 30.04 in 10.0 mi SSE 5.8 mph - 0.00 in   Clear
8:50 AM 60.8 °F 55.4 °F 82% 30.03 in 10.0 mi SSE 8.1 mph - 0.00 in   Clear
9:10 AM 60.8 °F 55.4 °F 82% 30.03 in 10.0 mi SSE 6.9 mph - 0.00 in   Clear
9:30 AM 62.6 °F 57.2 °F 82% 30.03 in 10.0 mi South 6.9 mph - 0.00 in   Scattered Clouds
9:50 AM 62.6 °F 57.2 °F 82% 30.03 in 10.0 mi South 6.9 mph - 0.00 in   Mostly Cloudy
10:10 AM 62.6 °F 55.4 °F 77% 30.03 in 10.0 mi South 6.9 mph - 0.00 in   Mostly Cloudy
10:30 AM 62.6 °F 57.2 °F 82% 30.04 in 10.0 mi SSW 8.1 mph - 0.00 in   Mostly Cloudy
10:50 AM 64.4 °F 57.2 °F 77% 30.04 in 10.0 mi South 5.8 mph - 0.00 in   Overcast
11:10 AM 64.4 °F 57.2 °F 77% 30.04 in 10.0 mi South 4.6 mph - 0.00 in   Overcast
11:30 AM 66.2 °F 57.2 °F 73% 30.03 in 10.0 mi South 6.9 mph - 0.00 in   Mostly Cloudy
11:50 AM 66.2 °F 57.2 °F 73% 30.03 in 10.0 mi SSW 4.6 mph - 0.00 in   Overcast
12:10 PM 66.2 °F 55.4 °F 68% 30.03 in 10.0 mi SSW 6.9 mph - 0.00 in   Overcast
12:30 PM 66.2 °F 55.4 °F 68% 30.03 in 10.0 mi SW 8.1 mph - 0.00 in   Overcast
12:50 PM 66.2 °F 55.4 °F 68% 30.03 in 10.0 mi SSW 9.2 mph - 0.00 in   Scattered Clouds
1:10 PM 64.4 °F 57.2 °F 77% 30.03 in 10.0 mi SSW 9.2 mph - 0.00 in   Mostly Cloudy
1:30 PM 64.4 °F 57.2 °F 77% 30.03 in 5.0 mi SW 8.1 mph - 0.00 in   Mostly Cloudy
1:50 PM 62.6 °F 60.8 °F 94% 30.03 in 5.0 mi SW 8.1 mph - 0.01 in   Overcast
2:10 PM 62.6 °F 60.8 °F 94% 30.02 in 8.0 mi SSW 9.2 mph - 0.00 in   Overcast
2:30 PM 62.6 °F 60.8 °F 94% 30.02 in 10.0 mi South 6.9 mph - 0.00 in   Overcast
2:50 PM 62.6 °F 60.8 °F 94% 30.01 in 10.0 mi SSE 5.8 mph - 0.00 in   Overcast
3:10 PM 62.6 °F 60.8 °F 94% 30.00 in 10.0 mi South 6.9 mph - 0.00 in   Overcast
3:30 PM 62.6 °F 60.8 °F 94% 30.00 in 10.0 mi SSW 6.9 mph - 0.00 in   Overcast
3:50 PM 62.6 °F 62.6 °F 100% 30.00 in 9.0 mi South 8.1 mph - 0.00 in   Overcast
4:10 PM 62.6 °F 62.6 °F 100% 30.00 in 10.0 mi SSW 9.2 mph - 0.00 in   Overcast
4:30 PM 62.6 °F 62.6 °F 100% 29.99 in 10.0 mi South 8.1 mph - 0.00 in   Overcast
4:50 PM 62.6 °F 62.6 °F 100% 29.99 in 10.0 mi South 6.9 mph - 0.00 in   Overcast
5:10 PM 62.6 °F 60.8 °F 94% 29.99 in 9.0 mi South 10.4 mph - 0.00 in   Overcast
5:30 PM 62.6 °F 62.6 °F 100% 29.99 in 9.0 mi South 9.2 mph - 0.00 in   Overcast
5:50 PM 62.6 °F 62.6 °F 100% 29.99 in 9.0 mi South 9.2 mph - 0.00 in   Overcast
6:10 PM 62.6 °F 62.6 °F 100% 29.99 in 9.0 mi South 6.9 mph - 0.00 in   Overcast
6:30 PM 62.6 °F 62.6 °F 100% 30.00 in 9.0 mi South 9.2 mph - 0.00 in   Overcast
6:50 PM 60.8 °F 60.8 °F 100% 29.99 in 8.0 mi South 8.1 mph - 0.00 in   Overcast
7:10 PM 60.8 °F 60.8 °F 100% 29.99 in 9.0 mi South 8.1 mph - 0.00 in   Overcast
7:30 PM 60.8 °F 60.8 °F 100% 29.99 in 10.0 mi South 6.9 mph - 0.00 in   Overcast
7:50 PM 60.8 °F 60.8 °F 100% 29.99 in 10.0 mi South 8.1 mph - 0.00 in   Overcast
8:10 PM 60.8 °F 60.8 °F 100% 30.00 in 10.0 mi South 8.1 mph - 0.00 in   Overcast
8:30 PM 60.8 °F 60.8 °F 100% 30.00 in 10.0 mi SSW 8.1 mph - 0.00 in   Overcast
8:50 PM 60.8 °F 60.8 °F 100% 30.00 in 10.0 mi SSW 6.9 mph - 0.00 in   Overcast
9:10 PM 60.8 °F 60.8 °F 100% 30.00 in 5.0 mi SSW 5.8 mph - 0.00 in   Overcast
9:30 PM 60.8 °F 60.8 °F 100% 30.00 in 1.5 mi South 4.6 mph - 0.00 in   Overcast
9:50 PM 60.8 °F 60.8 °F 100% 30.00 in 1.2 mi SW 5.8 mph - 0.01 in   Overcast
10:10 PM 60.8 °F 60.8 °F 100% 30.00 in 1.5 mi South 6.9 mph - 0.01 in   Overcast
10:30 PM 60.8 °F 60.8 °F 100% 30.00 in 1.2 mi South 5.8 mph - 0.01 in   Overcast
10:50 PM 60.8 °F 60.8 °F 100% 30.00 in 1.2 mi South 4.6 mph - 0.02 in   Overcast
11:10 PM 60.8 °F 60.8 °F 100% 30.00 in 1.5 mi South 5.8 mph - 0.00 in   Overcast
11:30 PM 60.8 °F 60.8 °F 100% 30.00 in 2.0 mi South 6.9 mph - 0.00 in   Overcast
11:50 PM 60.8 °F 60.8 °F 100% 30.00 in 3.0 mi South 5.8 mph - 0.00 in   Overcast